Home   Weather   Waterbury   Past weeks

Flag for USA Past Weather in Waterbury, Connecticut, USA — Yesterday and Last 2 Weeks

Now
36 °F

Fog.


Feels Like: 32 °F
Forecast: 30 / 43 °F
Wind: 5 mph from West

Location: Oxford

Current Time: Dec 5, 2016 at 11:47:37 am

Latest Report: Dec 5, 2016 at 10:50 am


Visibility: 2 mi

Pressure: 29.96 "Hg

Humidity: 93%

Dew Point: 34 °F

Location of WaterburyLocation

Past Weather in Waterbury — Graph

°F

Waterbury Temperature Yesterday

Maximum temperature yesterday: 37 °F (at 11:50 am)
Minimum temperature yesterday: 28 °F (at 6:50 pm)
Average temperature yesterday: 33 °F

High & Low Weather Summary for the Past Weeks

 TemperatureHumidityPressure
High57 °F (Nov 29, 3:50 pm)88% (Nov 29, 10:55 am)30.33 "Hg (Nov 29, 10:55 am)
Low27 °F (Nov 28, 6:50 am)41% (Nov 22, 11:50 am)29.41 "Hg (Nov 20, 1:50 pm)
Average38 °F68%30.00 "Hg
* Reported Nov 20 9:50 am — Dec 5 9:50 am, Waterbury, Weather by CustomWeather, © 2016

Note: Actual official high and low records may vary slightly from our data, if they occured in-between our weather recording intervals... More about our weather records

Advertising

Waterbury Weather History for the Previous 24 Hours

Scroll right to see more
 ConditionsComfort  
Time TempWeatherWind HumidityBarometerVisibility
9:50 am
Mon, Dec 5
36 °FFog.5 mph81%29.98 "Hg1 mi
8:50 am34 °FLight snow. Fog.3 mph81%30.00 "Hg1 mi
8:20 am32 °FLight snow. Ice fog.3 mph87%30.01 "Hg1 mi
7:50 am30 °FLight snow. Ice fog.No wind86%30.00 "Hg1 mi
6:50 am30 °FLight snow. Ice fog.5 mph86%30.00 "Hg2 mi
5:55 am30 °FLight snow. Ice fog.6 mph86%30.00 "Hg4 mi
5:35 am30 °FOvercast.3 mph86%30.02 "Hg2 mi
5:15 am30 °FLow clouds.5 mph86%30.03 "Hg1 mi
4:55 am30 °FLow clouds.3 mph80%30.04 "Hg0 mi
4:35 am30 °FOvercast.3 mph69%30.04 "Hg2 mi
4:15 am32 °FOvercast.7 mph60%30.05 "Hg5 mi
3:55 am30 °FPartly cloudy.5 mph64%30.07 "Hg10 mi
3:35 am32 °FOvercast.3 mph60%30.08 "Hg10 mi
3:15 am32 °FOvercast.No wind60%30.09 "Hg10 mi
2:55 am32 °FOvercast.5 mph60%30.09 "Hg10 mi
2:35 am32 °FOvercast.5 mph60%30.09 "Hg10 mi
2:15 am32 °FOvercast.3 mph60%30.08 "Hg10 mi
1:55 am30 °FMostly cloudy.5 mph64%30.08 "Hg10 mi
1:35 am30 °FOvercast.5 mph64%30.08 "Hg10 mi
1:15 am30 °FPassing clouds.5 mph64%30.10 "Hg10 mi
12:55 am30 °FPassing clouds.7 mph59%30.10 "Hg10 mi
12:35 am30 °FPassing clouds.6 mph59%30.11 "Hg10 mi
12:15 am30 °FPassing clouds.5 mph59%30.12 "Hg10 mi
11:55 pm
Sun, Dec 4
30 °FClear.5 mph64%30.13 "Hg10 mi
11:35 pm30 °FClear.5 mph59%30.14 "Hg10 mi
11:15 pm30 °FClear.No wind59%30.15 "Hg10 mi
10:55 pm30 °FClear.6 mph59%30.14 "Hg10 mi
10:35 pm30 °FClear.5 mph59%30.15 "Hg10 mi
10:15 pm30 °FClear.3 mph59%30.15 "Hg10 mi
9:55 pm30 °FClear.No wind59%30.16 "Hg10 mi
9:35 pm30 °FClear.3 mph59%30.16 "Hg10 mi
9:15 pm30 °FClear.No wind59%30.17 "Hg10 mi
8:55 pm30 °FPassing clouds.No wind59%30.17 "Hg10 mi
7:55 pm32 °FPassing clouds.5 mph55%30.19 "Hg10 mi
6:50 pm28 °FPassing clouds.5 mph59%30.19 "Hg10 mi
5:50 pm30 °FClear.No wind55%30.20 "Hg10 mi
4:50 pm34 °FPassing clouds.5 mph51%30.19 "Hg10 mi
3:50 pm37 °FChilly.5 mph45%30.19 "HgN/A
2:50 pm37 °FChilly.5 mph45%30.18 "HgN/A
1:50 pm37 °FChilly.6 mph45%30.18 "HgN/A
12:50 pm37 °FChilly.6 mph45%30.18 "HgN/A
11:50 am37 °FChilly.7 mph45%30.19 "HgN/A
Weather by CustomWeather, © 2016

See weather overviewHow to use our weather pages